TimeCDT,TemperatureF,Dew PointF,Humidity,Sea Level PressureIn,VisibilityMPH,Wind Direction,Wind SpeedMPH,Gust SpeedMPH,PrecipitationIn,Events,Conditions,WindDirDegrees,DateUTC
12:53 AM,66.9,60.1,79,30.06,10.0,SE,3.5,-,N/A,,Clear,140,2012-10-22 05:53:00
1:53 AM,66.9,62.1,84,30.06,10.0,ESE,3.5,-,N/A,,Clear,120,2012-10-22 06:53:00
2:53 AM,68.0,64.0,87,30.05,10.0,East,5.8,-,N/A,,Clear,90,2012-10-22 07:53:00
3:53 AM,69.1,64.0,84,30.05,10.0,East,6.9,-,N/A,,Clear,90,2012-10-22 08:53:00
4:53 AM,69.1,64.9,87,30.05,10.0,East,9.2,-,N/A,,Clear,80,2012-10-22 09:53:00
5:53 AM,68.0,64.0,87,30.06,10.0,East,11.5,-,N/A,,Clear,80,2012-10-22 10:53:00
6:53 AM,68.0,63.0,84,30.08,10.0,East,9.2,-,N/A,,Clear,80,2012-10-22 11:53:00
7:53 AM,68.0,63.0,84,30.09,10.0,East,10.4,-,N/A,,Clear,80,2012-10-22 12:53:00
8:53 AM,70.0,63.0,78,30.11,10.0,East,10.4,-,N/A,,Clear,80,2012-10-22 13:53:00
9:53 AM,73.9,64.9,73,30.11,10.0,East,8.1,-,N/A,,Clear,80,2012-10-22 14:53:00
10:53 AM,75.9,66.0,71,30.11,10.0,ENE,9.2,-,N/A,,Partly Cloudy,70,2012-10-22 15:53:00
11:53 AM,79.0,63.0,58,30.11,10.0,SE,10.4,-,N/A,,Clear,130,2012-10-22 16:53:00
12:53 PM,80.1,64.0,58,30.09,10.0,East,10.4,-,N/A,,Partly Cloudy,90,2012-10-22 17:53:00
1:53 PM,80.1,64.9,60,30.06,10.0,East,13.8,-,N/A,,Partly Cloudy,90,2012-10-22 18:53:00
2:53 PM,79.0,64.9,62,30.04,10.0,East,11.5,-,N/A,,Clear,100,2012-10-22 19:53:00
3:53 PM,79.0,66.0,64,30.03,10.0,East,13.8,19.6,N/A,,Clear,90,2012-10-22 20:53:00
4:53 PM,77.0,66.0,69,30.03,10.0,East,12.7,-,N/A,,Clear,100,2012-10-22 21:53:00
5:53 PM,75.9,66.0,71,30.04,10.0,ESE,12.7,-,N/A,,Clear,110,2012-10-22 22:53:00
6:53 PM,73.9,66.9,79,30.05,10.0,East,11.5,-,N/A,,Clear,100,2012-10-22 23:53:00
7:53 PM,73.0,68.0,84,30.06,10.0,East,10.4,-,N/A,,Clear,100,2012-10-23 00:53:00
8:53 PM,72.0,68.0,87,30.07,10.0,East,9.2,-,N/A,,Clear,90,2012-10-23 01:53:00
9:53 PM,71.1,68.0,90,30.07,10.0,East,9.2,-,N/A,,Clear,100,2012-10-23 02:53:00
10:53 PM,71.1,68.0,90,30.07,10.0,ESE,9.2,-,N/A,,Clear,110,2012-10-23 03:53:00
11:53 PM,71.6,66.2,83,30.07,10.0,ESE,10.4,-,N/A,,Clear,120,2012-10-23 04:53:00